Wind_Speed
14 14 15 15 15 15 15 15 15 15 15 15 15 16 16 16 17 17 17 16 15 15 15 15 15 15 15 15 16 16 16 17 17 16 17 17 17 18
15 16 16 16 17 17 17 16 17 17 16 16 17 17 17 17 17 17 17 17 16 16 16 17 17 16 16 16 17 17 18 18 18 18 18 19 19 19
16 17 17 18 18 18 18 18 18 18 17 17 18 18 19 19 19 18 18 18 17 17 17 18 18 18 17 18 19 19 19 19 19 20 20 20 19 19
17 17 18 18 18 18 19 19 19 19 19 19 19 19 19 19 19 19 20 19 19 19 19 19 19 20 20 20 20 20 20 21 21 21 21 21 21 21
18 18 18 18 18 18 19 19 20 20 20 21 20 20 20 20 20 20 20 20 21 21 20 20 21 21 21 21 21 22 22 22 22 22 22 22 22 22
19 19 19 19 19 19 19 20 21 21 21 21 21 21 21 21 21 21 22 22 22 22 22 23 23 22 22 23 23 23 23 23 23 23 23 23 24 24
20 19 19 19 20 21 21 21 21 22 22 22 22 22 22 22 22 23 23 24 24 24 24 25 24 24 24 24 24 24 24 24 24 24 24 24 25 25
19 20 20 21 21 22 22 23 22 23 23 23 23 23 23 23 24 24 24 25 25 26 26 26 26 25 25 25 25 25 25 25 25 25 25 25 25 25
20 20 21 22 22 23 23 23 24 24 24 24 24 24 25 25 25 26 26 26 25 26 26 25 25 25 25 25 25 26 26 26 26 26 26 26 26 26
21 21 22 22 23 23 24 24 24 25 25 25 26 26 26 26 27 27 27 26 26 25 25 25 25 25 25 25 25 26 26 27 27 28 27 27 27 28
21 22 23 23 24 24 25 26 26 26 26 27 27 27 27 27 27 27 27 26 26 26 26 26 26 26 26 26 26 26 27 28 29 29 29 29 29 29
23 23 24 24 25 26 26 27 27 27 27 27 27 27 27 28 28 28 27 27 27 26 27 27 27 27 27 27 28 28 29 29 29 29 29 30 30 30
24 25 25 25 26 26 27 27 28 28 27 27 27 28 28 28 28 28 28 27 27 27 28 28 28 28 29 29 29 30 31 31 31 31 30 31 31 32
26 26 26 27 27 27 27 27 27 28 28 27 28 29 29 29 29 29 28 28 28 29 29 29 29 30 31 31 31 32 32 32 32 32 32 31 32 32
27 27 27 28 28 28 28 28 27 28 29 29 29 30 31 31 31 30 30 30 31 31 31 31 31 32 33 33 32 32 32 33 33 34 34 34 33 34
28 28 28 28 28 29 29 29 29 29 30 30 31 31 31 31 31 31 32 32 32 32 33 33 34 34 34 34 34 33 34 34 34 35 35 35 35 35
29 29 29 29 29 30 30 31 31 31 31 31 32 32 33 33 33 33 33 33 33 33 34 34 35 35 35 35 34 34 34 34 34 34 35 35 35 36
31 31 31 31 32 32 32 31 32 32 33 33 33 33 34 34 34 35 35 35 34 34 34 34 35 35 35 34 34 34 34 35 35 35 35 36 36 36
33 33 33 33 34 34 34 33 33 33 34 34 34 34 35 35 35 35 36 35 35 35 35 36 36 36 36 35 35 35 36 36 36 36 36 37 37 36
35 35 35 34 35 35 35 35 35 35 35 35 35 35 35 35 35 36 36 36 36 37 37 37 37 37 38 37 37 37 37 38 38 37 38 38 37 37
36 36 36 36 36 36 36 37 37 37 37 37 37 37 37 37 37 37 37 38 38 38 38 38 38 39 40 40 39 38 38 39 39 39 39 39 38 38
37 37 37 37 37 37 37 37 38 38 38 39 38 38 38 38 39 39 39 39 39 39 39 39 40 40 40 40 40 40 40 40 41 41 40 40 39 38
37 38 38 38 37 38 38 38 38 38 38 39 39 40 40 40 41 41 41 41 41 41 41 41 41 42 42 42 41 41 41 41 41 41 41 41 41 40
Wind_Direction
279 280 281 283 283 284 282 282 282 282 283 282 282 282 283 285 286 283 283 280 279 281 284 287 288 287 285 284 284 283 285 287 288 286 284 284 284 283
276 278 280 281 281 281 280 280 281 282 283 282 280 280 280 283 284 284 282 279 279 281 283 284 285 285 284 283 283 282 282 284 286 286 286 286 287 287
277 277 278 280 280 280 279 279 280 281 282 282 281 281 280 282 283 283 281 280 281 282 282 282 282 282 282 283 282 281 281 282 282 283 284 284 285 286
278 278 278 280 279 279 279 277 278 278 280 281 281 283 283 284 284 283 278 278 280 281 281 281 281 282 282 281 281 282 281 281 282 282 283 283 283 283
280 278 278 279 280 280 280 278 277 278 279 279 280 282 282 282 283 283 280 278 280 280 282 282 282 281 281 280 282 282 282 282 282 282 282 282 282 283
280 279 279 278 278 278 279 279 278 279 279 279 278 279 280 283 283 282 282 281 281 281 282 282 283 283 281 280 281 282 281 281 280 281 282 282 282 282
281 279 279 279 278 279 279 281 281 279 279 279 279 279 280 282 283 283 282 282 282 281 281 281 281 282 281 280 280 279 278 278 278 280 281 282 282 282
285 281 280 280 280 280 279 280 281 280 278 279 279 279 280 282 283 284 285 284 282 282 283 282 282 282 281 280 280 279 277 276 277 279 281 282 283 282
286 283 281 281 280 281 280 280 280 279 278 278 280 281 281 282 284 284 285 286 285 283 283 283 283 283 282 279 278 278 277 278 278 279 280 281 281 282
285 285 284 283 281 281 280 280 280 279 279 278 279 280 282 281 283 283 284 284 284 284 283 282 282 283 283 282 280 279 278 278 278 279 278 278 279 280
287 286 285 285 283 282 281 281 282 281 279 278 278 279 281 282 283 282 283 284 285 284 283 283 283 282 282 282 282 282 281 279 279 279 278 277 278 280
287 288 287 287 285 283 283 283 283 282 280 279 278 279 281 283 284 284 283 284 285 285 283 283 283 282 281 281 282 283 283 282 280 279 279 278 279 281
288 288 288 289 288 286 285 284 283 282 281 279 278 279 280 282 284 284 284 283 284 285 285 284 284 283 282 281 281 282 283 282 281 280 280 279 279 280
289 289 288 288 287 286 286 286 284 282 281 280 278 279 280 281 283 284 283 282 283 284 285 285 285 285 284 283 283 283 282 281 281 280 281 281 280 281
290 290 288 288 287 286 286 287 284 282 281 280 278 279 280 281 282 283 282 283 282 283 284 285 285 286 286 285 284 283 282 282 282 282 282 282 281 282
289 290 289 287 286 286 287 286 284 284 283 281 280 280 281 281 281 282 282 282 282 282 283 284 285 286 286 286 285 284 283 283 282 284 284 284 284 284
289 289 288 288 288 287 287 285 284 284 284 283 282 282 282 282 281 281 281 281 282 283 283 284 285 285 286 285 285 285 284 284 284 285 285 285 285 284
288 289 288 287 288 288 287 287 285 284 284 284 284 283 282 281 281 281 281 282 282 283 283 284 284 285 285 285 285 285 285 285 285 285 286 286 284 284
289 289 289 288 287 286 286 285 286 285 284 284 284 284 284 282 282 281 281 283 282 283 284 284 284 285 285 285 284 285 285 285 285 285 286 286 285 283
288 288 288 287 286 284 284 284 285 285 285 284 283 283 283 283 283 282 282 283 283 282 283 283 283 283 284 285 284 284 285 286 285 286 286 286 285 283
289 289 288 287 286 284 283 282 283 283 284 283 282 282 282 282 283 283 282 282 282 282 283 283 283 283 283 283 283 284 285 286 286 287 287 285 283 282
289 289 289 288 287 285 283 283 283 283 284 284 282 282 281 281 282 282 282 282 282 282 283 283 283 283 283 285 284 284 284 285 286 286 286 284 283 282
289 289 288 288 287 285 284 284 284 284 285 285 284 283 282 281 281 282 282 281 281 282 282 282 282 282 283 284 284 284 284 284 285 285 285 284 282 283
Height
5824 5823 5823 5823 5822 5822 5822 5821 5822 5821 5820 5819 5819 5818 5817 5817 5816 5815 5814 5813 5812 5811 5810 5810 5809 5808 5807 5807 5806 5806 5805 5805 5805 5804 5804 5803 5803 5802
5819 5819 5819 5818 5818 5817 5817 5817 5816 5816 5816 5815 5814 5814 5813 5813 5812 5811 5810 5809 5808 5807 5806 5806 5805 5804 5803 5802 5802 5801 5801 5800 5800 5799 5799 5798 5797 5797
5814 5814 5814 5813 5813 5812 5812 5812 5811 5811 5811 5811 5810 5809 5809 5808 5807 5806 5805 5804 5803 5803 5802 5801 5800 5799 5798 5798 5797 5796 5795 5795 5795 5794 5793 5792 5792 5791
5809 5809 5808 5808 5807 5807 5807 5806 5806 5806 5806 5805 5805 5804 5804 5803 5802 5801 5800 5799 5798 5797 5796 5796 5795 5794 5793 5792 5791 5790 5790 5789 5788 5788 5787 5786 5786 5785
5803 5803 5803 5802 5802 5801 5801 5801 5800 5800 5800 5799 5799 5799 5798 5797 5796 5796 5794 5794 5792 5791 5790 5789 5788 5787 5786 5786 5784 5784 5783 5782 5782 5781 5780 5779 5779 5778
5798 5797 5797 5796 5796 5795 5795 5795 5794 5794 5794 5793 5793 5792 5792 5791 5790 5789 5788 5787 5786 5785 5784 5783 5781 5780 5779 5778 5778 5777 5776 5775 5774 5773 5772 5772 5771 5770
5792 5791 5791 5790 5790 5789 5789 5788 5788 5788 5787 5787 5786 5786 5785 5784 5784 5783 5782 5780 5779 5778 5777 5775 5774 5773 5771 5770 5769 5768 5768 5767 5766 5765 5765 5764 5763 5762
5786 5785 5784 5784 5783 5783 5782 5782 5781 5781 5781 5780 5779 5779 5778 5777 5776 5775 5774 5773 5772 5770 5768 5767 5765 5764 5763 5762 5761 5760 5759 5758 5758 5757 5757 5756 5755 5754
5780 5779 5778 5777 5777 5776 5775 5775 5774 5773 5773 5773 5772 5771 5771 5770 5769 5767 5766 5765 5763 5762 5760 5759 5757 5756 5755 5754 5753 5752 5751 5751 5750 5749 5749 5748 5747 5746
5774 5773 5772 5771 5770 5769 5768 5768 5767 5766 5766 5765 5764 5763 5762 5761 5760 5759 5758 5757 5755 5753 5752 5751 5750 5748 5747 5746 5745 5744 5743 5742 5741 5740 5740 5739 5738 5736
5768 5767 5766 5764 5763 5762 5761 5760 5759 5758 5757 5756 5756 5754 5754 5753 5751 5750 5749 5748 5747 5745 5744 5743 5742 5740 5739 5738 5736 5735 5734 5733 5732 5731 5730 5729 5728 5727
5761 5760 5759 5757 5756 5754 5753 5752 5751 5750 5749 5748 5747 5746 5745 5744 5743 5742 5741 5739 5738 5737 5736 5734 5733 5732 5731 5730 5728 5727 5725 5724 5723 5721 5720 5719 5718 5717
5755 5753 5752 5750 5748 5747 5745 5744 5743 5741 5740 5739 5739 5738 5737 5736 5734 5733 5732 5730 5729 5728 5727 5725 5724 5722 5721 5721 5720 5717 5716 5714 5713 5711 5710 5709 5708 5706
5748 5746 5744 5742 5740 5739 5737 5736 5734 5733 5732 5731 5730 5729 5728 5727 5726 5724 5723 5722 5721 5719 5718 5716 5715 5713 5712 5711 5710 5708 5706 5704 5702 5701 5699 5698 5697 5695
5740 5738 5736 5734 5732 5731 5729 5727 5726 5725 5723 5722 5722 5721 5719 5718 5717 5716 5714 5713 5712 5710 5708 5707 5705 5704 5702 5700 5699 5697 5695 5694 5691 5690 5688 5687 5685 5684
5732 5730 5728 5726 5724 5722 5721 5719 5718 5716 5715 5714 5713 5711 5710 5709 5707 5706 5705 5703 5702 5701 5699 5697 5695 5694 5692 5690 5688 5686 5684 5682 5681 5679 5677 5675 5674 5672
5723 5721 5719 5717 5715 5714 5712 5710 5708 5707 5705 5704 5703 5701 5700 5699 5697 5696 5695 5693 5692 5691 5689 5687 5685 5683 5681 5679 5677 5675 5673 5671 5670 5667 5666 5664 5662 5660
5714 5713 5710 5708 5706 5704 5702 5700 5699 5697 5695 5694 5693 5691 5690 5689 5687 5686 5684 5682 5681 5680 5678 5676 5675 5673 5671 5669 5667 5664 5662 5660 5658 5656 5654 5652 5651 5648
5705 5703 5700 5698 5696 5693 5691 5690 5688 5687 5685 5683 5682 5681 5679 5678 5676 5675 5673 5671 5670 5669 5667 5665 5663 5661 5659 5658 5656 5653 5651 5649 5647 5645 5643 5641 5639 5637
5694 5692 5690 5687 5685 5683 5681 5679 5677 5676 5674 5672 5671 5669 5668 5666 5665 5664 5662 5660 5659 5657 5655 5653 5651 5649 5647 5646 5644 5642 5639 5637 5635 5633 5631 5629 5627 5625
5683 5680 5678 5675 5673 5671 5669 5667 5666 5664 5662 5660 5659 5657 5656 5654 5653 5651 5650 5648 5646 5645 5643 5642 5639 5637 5635 5633 5632 5630 5628 5625 5623 5621 5619 5616 5614 5613
5671 5668 5666 5663 5661 5659 5657 5655 5654 5652 5650 5648 5646 5645 5643 5641 5640 5639 5637 5636 5634 5632 5631 5629 5627 5625 5622 5620 5619 5617 5615 5613 5610 5608 5606 5604 5601 5600
5658 5656 5654 5651 5649 5647 5645 5643 5641 5639 5637 5636 5634 5632 5630 5628 5627 5626 5624 5622 5621 5619 5617 5616 5614 5612 5609 5608 5606 5603 5602 5600 5597 5595 5593 5591 5589 5587